RH
52 52 53 56 59 62 64 64 65 66 64 65 66 66 66 63 61 60 57 53 49 45 46 46 45 47 50 51 53 54 55 56 58 57 56 59 60 59 60 58 58 60 62 64 66 65 64 64 65 66 64 64 67 70 73 74 75 74 72 71 67 66 66 66 70 67 53 52 56 54 52 48 52 57 51 45 47 46 45 47 44 42 46 53 62
51 52 53 55 56 58 61 60 60 60 58 59 60 60 59 54 53 54 52 52 52 51 51 51 52 52 51 50 50 52 54 54 55 57 56 58 60 58 58 58 56 56 58 61 62 62 61 61 61 62 61 61 62 64 67 71 73 72 70 67 60 59 61 64 72 67 53 53 55 50 48 45 44 50 55 52 49 48 47 46 44 44 46 50 58
54 54 53 53 55 57 58 57 55 54 53 54 55 54 52 51 52 53 52 50 51 53 52 55 61 62 59 58 56 55 58 58 56 57 57 57 58 56 56 58 55 53 54 56 57 59 60 59 58 59 59 57 57 57 59 62 68 70 68 66 62 55 53 60 69 67 59 56 52 47 47 47 43 43 52 54 48 47 48 45 44 44 45 47 52
58 57 54 54 56 57 55 54 53 51 49 50 52 51 49 51 52 51 50 48 50 54 56 58 62 65 63 61 59 57 56 56 55 55 55 55 57 56 56 56 54 52 52 52 53 56 58 57 57 57 57 56 54 53 54 54 57 61 63 64 63 58 51 56 64 66 66 64 56 51 48 46 45 44 48 49 44 46 48 46 46 46 45 46 47
58 57 55 55 57 58 54 51 49 47 47 50 52 51 50 51 50 48 50 49 51 56 59 58 58 59 58 56 56 54 53 52 52 53 53 54 55 54 54 53 52 52 51 51 52 54 56 56 56 55 56 57 54 52 52 52 51 53 58 59 60 60 55 52 55 59 65 67 64 60 55 52 51 49 49 47 43 43 43 43 47 49 49 49 48
55 53 54 56 57 58 55 51 48 46 48 52 54 54 51 49 49 48 49 49 51 55 57 56 54 54 53 52 51 50 50 53 52 52 51 52 54 54 53 52 50 51 50 50 51 52 53 54 54 53 54 55 55 54 53 52 50 50 56 57 55 58 58 53 51 53 56 60 61 61 63 63 60 56 54 49 44 40 40 42 44 46 49 53 52
52 50 51 54 56 57 54 51 50 48 50 52 54 54 50 48 49 50 48 47 50 55 54 53 53 53 52 50 50 48 49 52 51 49 49 49 50 51 51 50 49 50 50 49 49 49 50 51 52 52 51 50 51 52 53 53 50 51 56 59 57 56 57 56 54 53 53 53 55 57 58 58 57 56 56 53 50 46 42 42 41 40 45 51 52
46 47 50 54 56 55 50 49 50 51 51 52 51 51 50 50 50 50 49 48 51 54 50 51 53 52 50 48 48 48 48 48 46 46 48 48 48 49 49 49 49 49 49 49 47 47 49 49 50 51 50 49 47 47 51 54 53 55 57 59 59 57 57 58 57 55 53 53 55 57 55 52 49 48 48 50 53 52 47 41 38 38 42 46 46
41 44 49 54 56 53 47 46 50 52 53 52 51 50 50 51 50 51 52 49 51 53 49 50 54 51 48 47 45 46 46 45 44 45 48 48 47 48 48 48 49 49 49 50 49 49 50 50 50 51 52 51 48 48 51 54 56 57 57 57 58 57 57 59 58 55 54 55 57 56 55 53 48 46 45 45 48 51 49 42 38 39 41 42 44
39 42 48 53 54 51 47 47 49 53 55 54 53 50 49 51 52 52 52 50 49 49 46 47 49 48 47 47 44 44 46 45 45 46 48 47 45 46 48 47 47 48 49 51 51 51 52 53 52 50 52 52 50 51 53 55 56 54 54 56 57 57 58 59 59 59 57 58 58 55 54 53 52 51 48 47 49 51 50 45 41 41 41 41 43
37 39 45 52 53 49 48 49 50 53 56 55 54 51 49 52 53 53 52 51 48 46 45 44 45 46 48 47 45 46 47 44 45 46 45 46 46 47 47 48 48 49 51 52 53 53 53 54 54 51 52 53 51 51 52 53 55 52 50 53 55 57 58 58 59 60 60 58 57 55 53 51 54 55 51 52 54 54 54 51 45 43 41 41 42
37 36 41 49 52 48 46 50 52 54 55 54 53 51 49 51 53 53 52 50 48 46 45 44 44 45 47 47 46 49 48 44 44 46 45 46 47 47 47 47 49 50 50 51 52 54 55 56 56 54 54 55 54 52 50 51 54 53 51 52 52 54 58 60 60 61 62 59 57 58 55 52 53 54 52 54 55 55 56 52 45 43 43 41 42
38 36 38 46 49 46 45 50 52 53 54 52 51 50 49 51 52 50 49 49 48 47 45 45 44 45 46 47 46 47 47 46 46 43 43 46 47 46 45 45 46 48 49 51 51 53 54 55 57 57 56 56 56 55 53 53 57 57 53 53 52 53 59 64 62 62 64 62 60 60 57 53 52 51 53 56 55 53 53 50 46 45 45 42 41
38 35 35 40 44 44 44 47 48 49 51 51 51 51 49 50 51 48 47 48 49 47 47 45 45 46 46 46 45 43 43 47 48 45 43 44 44 44 44 44 45 47 49 52 53 53 52 54 55 56 57 57 57 58 57 55 57 56 55 56 56 56 60 64 62 63 64 62 63 63 59 57 55 53 54 54 52 51 51 51 51 50 49 46 41
38 35 35 39 43 45 43 44 45 45 48 49 49 50 50 49 48 47 46 48 49 49 48 45 44 45 45 45 45 44 42 44 46 46 45 44 43 43 44 46 47 48 49 51 53 53 53 54 52 52 55 56 56 58 58 57 56 56 56 58 59 58 59 62 62 62 62 62 64 64 60 58 57 55 54 54 53 53 52 52 53 54 54 50 43
39 37 37 39 42 45 44 44 44 42 45 48 48 48 50 48 46 47 47 47 49 49 48 48 45 44 45 45 45 45 44 44 44 46 47 48 49 47 46 48 48 48 49 51 52 54 55 54 52 52 55 55 56 59 59 59 60 59 58 57 58 58 60 61 62 61 62 62 63 62 59 57 56 56 55 56 57 57 56 55 53 52 56 57 50
41 40 38 39 41 43 43 42 42 41 41 43 46 47 48 48 46 46 48 49 50 49 49 50 47 45 45 45 44 44 44 45 45 45 47 49 50 48 47 47 48 49 50 51 53 54 56 56 54 54 56 56 59 60 59 58 59 59 57 56 56 58 59 58 60 61 61 62 61 59 58 56 55 56 57 59 60 60 60 58 55 52 54 58 56
42 41 38 37 39 41 41 38 37 39 39 39 43 45 47 49 47 46 48 49 50 49 49 51 49 45 44 43 43 44 46 46 46 46 47 46 44 44 46 47 48 50 50 50 52 52 53 54 54 53 53 55 58 59 58 57 56 56 57 56 55 56 58 56 57 59 61 61 59 58 59 57 56 57 59 60 61 61 60 57 55 53 52 55 57
44 43 38 36 38 40 40 38 35 37 39 38 40 43 45 48 49 48 49 50 52 51 49 51 51 47 45 44 43 43 44 44 43 44 45 42 40 42 45 47 49 50 50 51 51 48 47 49 50 49 49 52 54 56 56 55 55 55 55 54 55 55 56 54 54 56 59 59 58 56 56 54 55 57 57 57 57 57 56 53 53 53 53 57 60
44 42 39 36 37 37 37 38 35 33 35 35 37 42 45 48 50 52 52 52 52 52 51 51 50 48 45 45 44 43 43 42 41 43 43 40 40 42 44 46 50 50 49 50 48 45 45 47 46 45 45 47 50 51 52 52 52 52 51 51 53 53 51 50 50 52 53 55 54 53 51 51 53 55 55 55 55 53 53 52 53 53 54 58 60
43 40 39 38 37 36 34 35 34 31 32 33 38 42 44 46 49 52 54 52 51 51 51 50 49 48 46 44 43 43 43 42 41 43 44 42 42 43 44 47 49 49 49 48 46 44 46 46 44 43 43 44 45 45 47 49 49 48 49 49 50 50 48 46 47 49 49 50 52 52 51 50 52 55 56 53 51 51 51 52 53 52 51 53 56
45 42 40 39 37 35 33 32 32 32 33 35 38 40 42 43 46 51 52 50 50 50 49 49 50 49 47 45 44 43 43 42 42 43 43 42 42 43 45 46 47 47 47 46 44 45 46 45 43 43 42 42 43 42 45 48 48 47 46 46 47 47 47 47 47 47 45 46 50 52 51 51 54 57 59 56 52 51 52 51 51 51 50 52 54
44 43 42 41 39 37 34 32 32 33 34 38 41 42 43 45 46 49 51 49 48 48 47 48 50 49 47 46 45 43 42 43 42 42 41 41 42 43 44 44 44 43 44 44 45 45 45 44 44 43 42 42 42 42 44 47 46 44 44 44 45 45 46 48 47 45 43 43 46 47 48 51 53 56 58 57 55 54 54 52 51 51 52 53 53
44 43 43 44 42 40 37 34 32 32 34 40 44 43 43 47 47 46 47 48 47 46 47 47 49 49 46 45 45 42 40 42 41 40 41 42 42 43 43 43 42 42 42 43 44 45 44 44 44 43 42 41 41 41 42 43 44 44 44 45 45 45 45 46 46 45 44 44 44 45 46 47 49 52 54 54 53 53 55 53 51 51 51 51 52
45 44 45 46 44 42 38 33 31 30 32 38 43 42 41 45 47 46 44 46 46 46 46 47 48 48 46 45 45 42 39 41 41 40 42 43 42 42 43 43 43 42 42 42 42 43 43 43 42 40 39 39 40 40 41 41 42 43 44 45 46 47 47 46 45 45 44 43 43 44 45 44 45 48 50 50 51 53 55 54 52 52 51 50 51
46 45 47 48 46 42 36 33 32 31 32 36 39 40 40 40 45 49 47 44 46 48 48 47 48 47 44 43 42 39 38 39 40 41 42 42 42 42 42 42 40 40 41 43 42 41 41 41 40 38 39 40 40 41 42 42 43 43 44 44 45 48 49 46 45 45 44 42 41 42 42 43 45 47 49 49 51 53 54 53 53 53 52 51 52
44 45 47 48 48 45 38 35 37 37 38 41 39 38 38 37 42 48 48 46 48 50 48 47 48 46 41 38 37 37 37 37 39 41 41 41 41 41 41 40 39 40 41 41 39 38 40 42 41 40 41 41 41 43 44 45 45 44 44 44 44 46 48 47 45 44 44 43 43 43 43 44 46 47 47 48 50 53 54 53 54 55 54 52 53
41 43 45 45 46 47 44 42 45 46 47 47 43 39 39 41 43 43 45 50 53 51 47 45 46 44 40 37 36 36 35 36 38 40 41 42 42 42 43 42 43 45 45 42 40 39 40 41 41 41 41 42 43 43 45 47 47 45 44 45 44 45 47 48 48 46 46 46 45 44 43 42 43 44 47 50 51 52 54 53 53 55 56 55 53
38 39 41 42 42 43 46 50 51 51 49 47 43 40 41 44 44 41 43 51 53 49 45 44 43 41 39 37 36 35 34 36 39 40 40 42 42 42 43 44 45 45 44 43 42 42 43 43 43 42 42 42 44 46 48 50 51 50 48 47 47 47 47 48 50 50 50 49 48 48 46 44 44 46 51 53 48 48 53 55 54 56 58 58 55
33 34 35 38 39 39 44 51 53 51 48 45 41 38 38 40 41 41 44 47 48 47 44 41 39 37 36 36 34 34 35 35 37 38 38 38 37 37 41 45 45 43 43 45 46 48 48 47 46 46 47 48 50 52 53 55 56 56 56 56 57 56 54 52 53 54 54 53 53 51 49 49 49 50 56 58 51 47 52 56 55 56 59 62 62
28 31 34 37 40 41 45 49 49 48 45 41 40 39 38 39 40 42 43 42 43 44 42 38 36 34 34 33 32 33 34 34 34 34 34 34 35 38 41 44 45 46 49 52 54 55 53 53 53 52 53 55 55 57 58 55 52 50 53 59 63 64 62 59 58 58 58 56 53 50 48 48 49 50 55 59 57 55 58 60 59 59 62 67 72
27 29 32 35 37 39 43 44 42 40 39 38 41 42 41 42 42 42 42 41 40 40 38 36 34 33 32 31 31 31 31 31 32 33 34 37 41 42 43 46 48 52 56 58 59 59 57 58 57 54 53 54 53 55 52 42 35 34 39 52 65 68 66 64 63 62 62 59 54 52 49 47 47 48 51 53 54 55 58 62 64 64 65 68 71
32 31 30 33 34 35 39 42 39 37 36 38 42 44 43 44 43 42 41 40 39 38 36 34 33 32 31 30 31 31 30 32 34 38 41 44 45 46 48 51 54 57 59 60 60 60 59 57 54 52 51 49 50 51 44 32 26 25 28 41 59 69 68 66 66 65 64 61 58 55 54 52 51 51 50 53 55 53 51 55 62 66 68 67 64
37 35 32 34 36 35 39 42 39 38 41 43 45 46 47 45 42 40 38 36 35 34 34 34 33 31 30 30 31 32 34 37 40 43 46 47 48 49 52 55 56 57 59 59 58 57 56 54 52 51 49 48 49 50 46 39 36 34 36 42 53 65 70 70 68 67 66 64 61 59 58 56 55 54 52 52 52 49 47 49 54 58 61 62 60
36 36 35 37 38 38 41 42 39 41 44 43 42 43 43 40 37 36 35 33 33 32 33 33 31 30 31 33 35 37 40 43 45 46 47 47 48 51 55 56 56 56 56 55 53 52 51 51 50 49 48 49 51 53 53 52 52 55 59 61 62 66 69 69 68 67 65 64 63 61 60 58 56 55 55 55 53 51 47 46 49 52 55 57 57
33 35 37 37 37 38 41 40 38 37 36 34 36 37 35 33 33 33 32 32 32 32 31 31 31 34 36 38 41 43 45 46 46 45 45 46 49 54 56 57 55 53 52 51 50 49 49 49 50 51 53 53 55 58 60 61 65 71 74 74 72 67 63 62 63 62 60 58 58 57 56 57 56 53 53 56 59 59 53 47 49 52 54 56 57
31 34 38 40 39 38 39 39 37 34 33 34 36 35 32 32 32 31 31 32 31 31 31 33 36 40 41 44 45 44 45 46 44 44 45 49 54 56 55 55 53 50 49 49 48 48 47 47 50 54 56 57 57 60 64 67 71 76 79 80 77 70 64 62 61 59 55 52 52 53 53 55 56 56 57 60 64 67 62 55 53 53 53 55 55
28 30 33 38 40 39 39 40 38 37 39 40 39 37 34 32 32 31 31 31 31 33 36 39 43 44 44 46 45 43 44 44 43 46 51 54 55 54 52 52 52 50 48 47 46 46 46 47 50 53 58 60 60 60 64 68 71 76 81 82 76 70 68 66 65 63 59 53 50 50 53 56 56 57 61 64 67 71 69 63 58 55 55 55 53
26 29 31 38 43 42 39 40 41 43 46 45 43 40 36 32 32 33 33 34 37 41 42 44 46 45 44 45 45 46 48 48 47 51 54 53 51 50 51 53 52 49 45 44 45 46 48 50 51 55 59 61 61 61 61 63 70 78 81 75 68 66 68 69 69 69 68 66 59 52 51 54 53 53 57 61 67 72 72 66 60 57 58 57 55
26 34 39 40 40 38 35 38 45 48 47 46 43 40 39 38 38 37 38 42 46 47 45 44 44 43 42 43 46 50 52 52 50 51 52 51 50 51 52 53 52 48 46 48 52 52 52 51 50 53 56 56 59 59 56 58 70 81 78 67 61 63 66 68 69 68 67 70 69 62 56 52 50 52 56 58 62 64 65 66 64 60 59 61 60
33 40 41 37 35 37 38 41 47 49 45 44 42 40 41 43 43 44 46 47 48 47 44 42 41 40 41 44 47 52 54 53 52 52 52 52 52 52 52 53 52 50 50 52 52 50 49 47 46 48 50 51 54 52 49 56 70 81 78 64 56 62 70 73 73 70 66 66 67 67 65 62 61 63 64 63 62 59 58 65 72 69 64 67 71
41 40 40 39 40 44 47 47 49 48 44 42 43 42 42 44 46 48 48 46 44 43 41 39 39 40 43 47 51 54 56 55 55 54 52 51 52 52 51 51 52 50 49 49 46 45 45 44 43 44 44 44 47 47 49 59 70 74 69 58 56 69 80 80 75 71 68 67 67 67 69 73 77 78 75 76 76 74 73 75 77 75 70 72 81
42 41 44 45 42 45 51 52 50 48 45 44 45 45 44 47 49 48 45 43 41 39 39 40 41 43 45 47 49 53 55 54 54 53 51 50 52 52 49 47 48 47 45 45 44 43 42 41 40 41 40 40 44 46 50 59 64 64 61 60 67 79 85 83 80 75 69 66 67 70 73 79 84 84 82 84 84 82 84 84 80 77 77 80 87
42 45 48 46 42 45 52 52 51 50 48 47 47 46 47 49 49 45 41 40 40 40 41 43 44 45 45 45 45 47 49 50 49 49 50 50 50 50 47 44 44 44 42 42 40 37 38 39 40 40 40 41 45 48 50 54 56 58 63 71 78 83 84 84 84 79 72 68 68 74 80 84 89 88 84 87 87 81 79 79 74 71 77 86 94
42 47 49 45 45 49 52 54 57 58 54 50 48 49 50 49 46 41 39 39 40 42 43 43 44 46 46 45 42 40 43 50 50 47 48 48 47 46 45 42 41 41 39 36 34 34 38 40 41 41 43 45 48 51 51 50 52 60 70 79 84 86 86 87 85 81 78 75 74 76 80 84 90 91 88 90 94 89 81 75 67 65 77 90 92
43 50 52 50 51 53 55 58 62 61 57 53 50 49 47 44 41 40 40 40 41 43 45 44 44 46 45 45 44 40 41 48 52 47 44 45 45 43 41 38 38 38 36 33 35 38 41 41 42 44 47 49 51 51 48 49 57 70 80 84 87 89 88 88 87 85 82 80 78 77 80 82 86 90 91 91 94 95 91 83 70 67 80 88 86
50 55 55 53 53 55 56 57 57 54 51 48 46 44 42 40 41 41 41 40 41 42 43 44 43 42 42 43 47 48 46 46 48 47 44 45 44 42 40 40 40 38 35 36 41 44 44 45 48 49 51 53 54 51 50 59 72 82 86 87 88 89 89 88 88 87 85 85 84 82 82 81 82 87 89 88 91 97 100 94 78 71 80 86 86
57 57 55 53 53 54 53 51 49 47 45 44 44 45 44 42 42 41 40 41 43 42 42 42 41 42 43 43 46 50 47 44 45 46 45 46 47 47 46 45 43 41 41 44 48 48 49 53 56 57 58 58 57 56 62 76 86 88 89 90 89 88 88 88 88 88 90 92 90 82 77 75 78 82 83 83 89 95 97 94 85 77 82 88 87
58 58 55 53 53 52 49 47 45 44 44 45 45 46 46 43 41 41 40 41 42 42 42 42 42 42 43 43 45 47 45 43 44 45 44 45 47 50 49 45 42 42 46 53 57 56 58 63 64 63 63 64 65 70 78 86 89 91 93 93 92 90 89 89 89 90 93 94 87 76 69 69 76 82 81 81 88 91 91 92 88 83 86 88 86
58 57 55 53 52 49 46 44 44 44 44 44 44 43 42 41 40 40 39 38 37 37 39 41 42 44 44 43 43 44 45 44 43 43 44 43 43 44 43 40 40 43 50 60 66 65 65 68 69 68 69 73 77 83 85 86 88 93 95 95 93 90 89 89 89 89 92 91 83 74 71 73 81 86 84 84 88 91 92 94 91 87 88 85 80
54 53 53 52 49 46 44 45 45 43 43 43 42 41 40 40 40 39 39 38 36 36 38 39 42 46 49 47 45 46 47 46 44 44 44 39 35 33 32 34 40 49 57 65 68 65 63 66 70 72 76 81 85 87 86 87 92 96 96 93 90 87 86 87 90 92 92 88 80 75 74 75 80 86 88 89 92 93 95 97 93 90 89 84 81
Wind_Speed
7 7 7 7 7 7 7 7 8 8 8 9 9 9 9 10 11 11 10 10 10 10 9 8 8 8 8 8 9 9 9 10 11 11 11 12 12 11 11 11 10 10 10 11 11 10 10 10 11 11 11 10 11 11 11 12 12 12 11 10 10 11 10 11 13 15 14 13 13 14 14 13 10 9 9 9 7 9 11 11 12 11 10 11 10
7 7 7 7 7 6 6 6 7 8 8 9 9 10 10 10 11 11 10 10 10 10 9 8 8 8 8 8 8 9 9 9 10 10 10 11 11 11 10 10 9 9 9 9 10 10 10 10 10 11 11 10 10 11 11 12 12 13 12 12 11 11 10 11 14 14 13 13 13 12 12 12 11 9 7 7 9 12 12 11 10 10 10 11 10
6 7 6 6 6 6 6 6 6 8 8 9 9 10 10 10 10 10 10 11 11 10 10 9 9 8 9 9 8 9 9 9 9 9 9 10 11 11 11 10 9 9 9 9 9 10 10 10 9 10 10 10 10 10 11 12 12 12 12 12 12 12 10 11 13 13 13 14 13 9 8 9 9 7 7 12 15 13 10 10 10 11 11 10 10
6 6 6 6 6 5 6 6 6 7 8 9 9 8 9 9 9 10 11 11 11 11 10 9 8 9 9 9 9 9 9 8 8 9 9 9 10 11 11 11 11 11 11 10 10 11 11 10 10 9 10 10 10 10 11 11 11 11 11 11 12 12 11 11 11 12 13 12 10 8 8 8 6 7 13 16 15 11 11 12 12 12 12 11 11
6 6 6 5 6 5 5 5 6 7 7 8 7 7 8 9 9 10 11 12 12 11 11 10 9 9 9 8 8 9 9 10 9 9 9 9 10 11 11 11 11 11 11 11 11 11 11 10 10 9 9 10 10 10 10 11 11 11 11 11 11 11 12 12 10 10 11 10 8 7 7 6 6 11 15 13 12 13 14 14 13 13 13 13 12
5 6 6 6 5 5 5 5 5 6 6 7 6 6 7 8 9 10 11 11 12 12 12 12 12 11 10 10 10 9 10 10 11 11 10 10 10 10 10 11 11 11 10 11 11 10 11 11 10 10 9 9 10 10 10 11 11 11 11 11 11 10 11 12 11 10 10 8 8 8 7 7 9 12 11 9 13 16 14 14 14 14 15 14 13
5 5 6 6 5 4 5 4 5 5 5 5 5 5 6 7 8 9 10 11 11 11 12 12 12 12 12 11 11 11 10 10 10 10 10 10 10 9 10 10 10 10 10 10 10 11 11 10 10 10 10 10 9 9 10 11 11 11 11 11 11 10 11 11 11 11 10 9 9 10 11 11 12 12 9 8 11 13 14 15 15 14 14 14 15
6 5 6 6 5 4 5 5 5 5 5 4 4 5 5 6 7 8 9 10 10 10 11 11 11 12 12 11 11 11 10 9 9 10 9 9 10 9 9 9 9 10 10 10 10 11 11 10 10 9 10 10 10 10 10 11 11 11 11 10 10 10 10 11 11 11 11 11 11 12 12 13 13 13 12 11 9 10 13 15 15 16 16 15 15
6 6 6 7 6 4 5 5 5 5 4 4 4 4 5 5 5 6 7 8 9 9 10 10 10 11 11 11 11 10 9 9 9 9 9 9 9 9 9 8 9 9 10 10 10 10 10 10 10 9 10 11 10 10 10 10 10 11 11 10 10 10 10 10 11 11 11 12 12 13 13 13 14 13 13 13 11 10 10 11 14 17 17 16 16
6 6 6 7 6 5 5 5 5 4 3 3 4 4 4 3 3 4 5 6 7 8 9 9 9 10 10 11 11 10 9 8 8 8 8 8 9 9 9 9 8 9 9 9 9 10 10 9 10 10 10 11 11 11 10 10 10 10 11 10 10 10 10 10 10 11 11 12 12 13 13 13 13 12 12 13 12 11 11 11 14 16 15 17 18
6 6 7 7 6 5 5 5 5 4 4 3 3 3 3 2 2 2 3 4 6 7 7 8 8 9 9 9 10 10 9 9 9 9 9 9 9 9 9 8 8 8 9 8 9 9 9 9 10 10 10 11 11 11 11 11 10 10 10 10 10 10 10 10 10 10 11 12 12 12 12 12 12 11 12 14 12 11 11 10 14 17 17 19 19
6 5 7 8 7 6 6 6 6 6 5 5 4 4 4 3 3 2 2 3 4 5 6 6 7 7 7 7 8 8 9 10 9 10 10 9 9 9 9 9 8 8 8 8 8 9 9 9 10 10 11 11 11 11 12 11 10 10 10 10 10 10 10 10 10 10 11 12 12 12 12 12 12 12 13 14 13 13 13 10 13 17 16 18 21
7 6 7 8 8 8 8 8 8 8 8 7 6 6 5 4 4 2 2 2 3 4 4 4 5 5 5 6 7 7 8 9 10 10 10 9 8 9 9 9 9 9 9 9 9 10 10 10 10 11 11 11 11 11 11 11 10 10 10 10 11 10 10 10 10 10 11 11 12 12 13 13 13 13 13 14 14 15 15 11 14 17 14 16 21
8 7 7 8 9 9 10 10 10 9 9 9 8 7 6 5 4 2 1 1 1 2 2 3 3 4 4 5 7 8 9 9 9 9 9 8 8 9 9 9 9 9 9 9 9 10 10 10 10 10 10 11 11 11 11 10 10 10 9 10 10 10 10 10 11 11 11 11 12 12 13 13 13 13 13 14 14 15 15 14 14 15 15 16 18
8 7 7 9 10 10 10 10 10 10 10 9 9 8 7 6 4 2 1 1 2 1 1 1 2 3 4 5 7 8 9 8 8 8 8 8 8 8 8 8 9 9 9 9 9 9 9 10 10 9 10 11 10 10 9 8 9 10 9 10 10 11 11 12 12 12 12 12 12 12 13 13 13 14 14 14 15 15 16 17 15 12 12 13 13
8 8 8 10 11 11 10 11 10 10 10 10 9 9 8 6 4 2 3 3 3 3 2 1 1 2 4 5 7 7 8 8 7 7 6 7 7 8 8 8 8 9 8 9 9 8 8 9 9 9 9 10 9 9 8 8 9 10 10 10 10 10 11 12 12 12 13 13 13 13 13 14 13 14 14 15 15 15 15 17 17 14 11 10 9
9 8 9 11 12 12 12 12 11 11 10 10 10 8 7 5 4 4 5 5 5 4 4 2 1 2 3 4 6 7 7 7 7 7 6 6 6 7 7 7 8 8 8 8 8 8 8 8 8 8 8 8 8 8 7 8 9 9 10 11 10 11 11 12 12 12 13 13 13 13 13 14 14 14 14 15 15 16 16 16 16 16 14 11 9
10 10 10 12 13 13 13 12 12 12 10 10 9 8 6 5 6 6 6 7 6 5 5 3 3 2 2 4 5 5 6 6 6 6 6 6 6 6 6 7 7 7 7 7 7 7 7 7 7 7 7 7 7 7 7 8 9 9 10 10 10 11 12 12 12 12 12 12 13 13 13 14 14 14 15 15 15 15 15 16 15 16 16 13 11
10 10 10 11 13 13 13 12 12 12 11 9 9 7 6 6 7 8 8 8 7 7 6 5 4 3 2 3 4 4 5 5 6 6 6 6 7 6 6 7 7 7 7 7 6 7 7 7 7 7 7 7 7 7 7 8 9 9 10 10 10 11 12 12 12 11 12 12 13 13 13 13 13 14 15 15 15 15 15 16 15 15 16 16 16
9 9 9 11 13 13 13 13 13 12 11 10 9 8 8 7 8 9 9 9 9 8 7 6 5 4 3 3 3 4 4 5 5 6 6 6 6 6 7 7 7 7 7 7 7 7 8 7 7 7 7 7 7 7 8 9 9 9 10 10 10 11 12 12 12 12 11 11 12 13 13 13 13 14 15 15 15 15 15 16 15 16 16 16 18
10 9 10 12 13 13 13 13 12 11 10 9 9 9 9 9 9 9 9 9 9 9 8 7 6 5 5 4 4 4 5 5 5 6 6 6 6 6 7 7 7 7 7 7 7 7 8 8 8 8 7 8 8 8 8 9 9 10 10 10 11 11 12 12 12 12 12 11 12 13 13 13 13 13 14 15 15 15 15 15 15 15 16 16 17
10 9 10 11 12 13 13 13 12 11 10 10 10 10 10 10 9 9 10 10 9 9 9 8 7 6 6 5 5 5 5 5 5 6 6 6 6 7 7 8 8 7 7 8 8 8 8 8 8 8 8 8 8 8 8 8 9 10 11 11 11 11 12 12 12 13 13 12 12 13 14 13 13 13 14 15 15 15 15 16 16 15 17 17 17
9 9 10 11 12 12 13 12 12 12 11 11 10 11 10 11 10 10 10 10 10 9 9 9 8 8 7 6 6 6 6 6 6 6 7 7 7 8 8 8 9 9 8 8 9 9 9 10 10 10 10 10 10 10 10 9 10 11 11 12 12 12 13 13 14 15 15 15 15 15 15 14 14 15 15 15 15 15 15 15 16 16 17 18 18
8 9 11 12 12 12 12 12 13 12 11 11 11 11 11 11 11 11 11 11 10 10 10 9 9 9 8 7 7 6 7 6 7 7 8 8 9 9 9 9 10 10 10 10 11 11 12 12 12 12 13 13 13 13 13 13 13 13 13 13 13 14 14 14 15 16 17 18 19 19 19 17 17 17 17 17 16 15 15 16 17 17 17 18 18
8 9 10 11 12 12 12 13 13 13 11 11 10 11 11 11 11 11 11 11 10 9 9 9 9 9 8 8 7 7 7 7 8 8 9 9 10 10 10 11 11 12 12 13 13 13 13 13 14 15 16 16 16 17 17 17 17 16 16 16 16 16 16 16 17 18 20 20 20 21 22 21 20 20 19 18 17 17 16 17 18 19 18 18 18
8 9 9 10 11 12 12 13 13 12 10 10 10 10 10 10 10 10 10 11 10 9 8 8 9 9 8 8 8 9 9 9 9 9 10 10 11 11 12 12 12 13 14 15 15 15 15 15 16 17 18 19 19 19 19 19 19 19 19 19 19 18 19 20 20 21 22 23 23 23 24 23 23 22 21 20 19 18 18 19 19 19 19 19 19
7 8 8 9 10 12 12 12 11 11 9 9 9 10 10 10 9 9 9 9 8 8 7 8 8 8 8 9 10 10 9 10 10 10 11 11 12 12 13 13 14 15 16 16 17 18 17 17 18 19 20 21 21 21 21 21 20 21 21 21 21 21 21 23 24 24 24 25 26 25 24 24 23 23 23 21 19 18 18 18 18 18 19 20 20
7 8 9 9 10 10 11 11 10 9 8 8 10 10 10 10 9 9 8 8 7 6 7 7 8 7 8 9 10 9 10 11 11 12 12 13 14 14 14 15 15 16 17 18 19 20 20 20 21 22 22 22 23 23 22 22 23 23 23 23 23 23 23 25 26 26 26 26 28 28 27 26 26 25 23 21 19 17 16 16 16 16 17 19 20
8 8 9 9 9 9 9 9 8 8 8 9 10 10 10 10 9 9 8 7 6 5 6 6 6 7 7 8 9 9 10 11 12 13 14 14 15 15 15 16 17 18 18 19 21 22 23 23 23 23 24 23 23 23 22 23 24 25 25 25 24 24 25 26 26 26 26 27 28 29 28 28 28 26 25 23 22 20 18 16 15 15 16 17 19
8 8 8 8 8 8 8 7 7 7 8 9 9 10 10 10 8 7 7 6 5 4 5 5 5 6 7 8 9 9 10 12 13 14 14 15 16 17 17 18 19 21 21 22 22 22 22 23 23 23 22 22 21 21 21 23 26 28 28 27 26 25 26 26 26 27 27 27 27 28 29 30 28 27 27 27 26 24 22 19 17 15 16 16 17
5 5 5 6 6 7 7 6 6 6 7 8 9 9 8 7 6 5 5 4 3 3 3 4 5 6 7 9 10 10 11 12 13 15 16 17 19 19 19 20 21 21 21 20 20 20 20 20 20 20 19 19 19 19 20 23 26 28 29 29 27 25 24 25 25 26 27 26 27 28 29 30 28 27 26 26 26 24 22 20 19 18 18 17 16
3 3 4 4 5 5 5 4 4 5 5 5 5 5 4 3 3 3 3 3 2 2 2 3 5 6 8 9 10 11 12 13 15 17 18 19 20 21 21 21 20 19 18 18 17 17 17 17 17 17 18 18 18 18 21 25 27 28 30 31 28 24 23 23 23 25 26 26 27 28 28 28 27 27 27 27 26 24 21 19 18 18 19 19 19
1 1 2 2 3 2 2 2 1 0 1 2 1 1 1 1 2 3 2 1 1 1 2 4 5 7 8 9 10 12 13 15 17 19 19 19 20 20 19 18 17 16 16 15 15 15 15 15 16 17 18 18 19 21 25 28 30 30 31 32 31 26 24 24 25 25 26 27 27 28 27 26 27 28 28 27 26 26 23 20 18 18 19 21 22
3 2 2 3 4 5 6 5 5 6 6 5 5 4 4 4 4 3 2 1 0 1 3 4 6 7 9 10 12 14 16 17 18 19 18 18 17 16 16 15 15 15 14 14 14 14 15 16 17 18 20 21 21 23 27 30 32 32 32 33 32 28 25 25 25 25 26 27 27 28 28 28 27 28 29 28 27 27 26 24 21 20 20 21 22
5 6 7 7 8 8 8 8 8 8 7 7 7 6 5 5 4 3 2 2 2 3 3 5 6 9 10 12 14 15 16 17 17 17 16 15 15 14 14 14 13 14 14 14 15 15 16 17 19 20 21 21 21 23 26 29 30 31 33 32 29 26 24 24 24 25 26 27 28 28 29 28 28 28 29 29 29 28 27 25 23 20 20 21 23
7 8 9 9 9 9 9 9 8 8 7 7 7 6 5 4 4 3 2 2 2 4 5 7 9 10 12 13 14 15 15 14 14 14 14 14 14 14 13 13 13 14 15 15 16 18 19 20 20 20 20 20 21 22 25 27 28 30 32 29 25 24 24 25 25 25 26 27 28 28 29 28 29 29 29 30 29 28 28 25 23 21 21 22 24
9 10 10 9 9 10 9 8 8 7 6 6 6 4 3 3 3 2 2 2 4 6 7 8 10 11 12 12 12 12 12 12 13 14 14 14 14 13 13 13 14 16 17 18 18 19 20 21 20 20 19 20 21 21 22 25 27 30 31 27 24 24 24 25 25 26 27 28 28 28 29 29 30 29 28 28 27 26 26 24 23 23 22 24 26
10 10 10 9 8 8 7 7 6 6 5 5 4 3 2 1 2 3 4 5 6 7 8 8 9 10 9 9 9 10 11 12 13 13 13 13 13 13 13 14 16 18 19 19 19 20 20 20 19 19 20 21 21 20 21 24 25 27 28 26 24 25 25 25 27 28 29 30 30 29 28 29 30 29 28 27 25 24 24 22 23 24 23 24 26
9 8 8 7 6 5 5 5 5 5 4 3 2 1 1 3 4 4 5 6 6 7 7 7 7 7 7 8 8 9 10 11 12 12 12 13 14 14 15 16 17 18 19 19 19 20 20 19 19 20 20 20 20 20 22 25 24 24 27 27 25 25 26 26 27 29 30 30 31 32 30 29 30 30 28 26 25 25 23 21 21 23 23 24 24
8 6 5 5 4 3 3 3 4 3 3 2 1 1 3 4 4 5 5 5 5 5 5 6 6 6 7 8 8 9 10 10 11 12 13 14 14 15 16 17 17 18 19 19 19 19 20 20 20 20 20 20 20 21 23 25 22 21 26 31 29 26 26 28 28 29 29 29 30 32 34 32 30 29 27 26 25 25 24 22 21 21 23 23 21
6 4 3 3 3 2 1 2 3 2 1 1 1 2 3 3 3 4 4 4 5 5 6 6 6 7 8 9 9 9 10 10 10 12 13 14 14 15 17 17 17 17 18 18 19 19 19 20 21 20 20 20 21 23 25 24 22 22 26 33 33 28 28 30 30 28 28 28 28 30 33 33 30 28 28 27 24 24 24 23 21 21 23 23 21
4 3 3 2 2 1 1 2 2 1 0 0 1 2 1 2 3 5 6 6 6 7 7 7 7 8 9 9 8 9 9 9 11 13 14 15 15 16 17 16 17 18 19 19 20 20 20 21 21 20 21 21 22 24 24 23 23 26 30 35 36 33 32 33 31 29 28 28 28 29 30 30 30 30 30 28 25 24 23 23 23 24 25 26 25
3 3 2 1 2 1 1 1 1 1 0 0 1 1 2 4 7 8 7 7 8 7 7 8 8 8 9 8 8 9 9 10 12 14 15 15 15 16 17 17 17 19 19 20 21 21 21 22 22 21 22 22 22 23 23 23 26 31 35 36 35 35 36 35 31 30 31 30 29 29 29 31 33 36 37 35 32 31 28 25 25 27 28 28 25
3 3 2 1 2 1 1 1 1 1 0 1 1 3 6 9 10 9 8 8 8 7 7 7 7 8 8 9 10 10 11 12 14 14 14 14 16 17 17 18 19 20 20 21 22 22 22 22 22 22 23 23 23 23 23 23 27 32 35 35 35 36 37 35 32 32 31 30 31 32 34 37 38 39 40 38 35 35 34 29 26 28 30 28 23
2 2 1 0 1 1 2 3 4 3 3 3 4 7 11 12 10 8 8 8 7 7 7 7 7 8 9 11 11 12 13 12 13 14 13 14 16 17 18 19 19 20 20 21 21 22 21 21 22 23 23 23 23 23 23 24 28 33 34 35 35 36 35 33 33 33 32 33 36 38 40 41 39 36 36 34 31 29 29 28 26 26 26 24 21
1 2 2 2 3 4 5 6 7 7 7 8 10 11 13 11 9 9 8 7 7 7 7 8 8 9 10 11 12 13 13 12 12 14 14 14 16 17 19 19 20 20 21 21 21 21 21 21 22 22 23 23 24 24 24 26 30 34 35 36 36 34 33 33 32 32 33 35 36 38 39 40 39 36 33 30 28 26 26 26 26 25 23 21 19
4 5 5 5 6 7 8 10 10 10 11 12 13 12 12 10 9 8 7 7 8 7 8 9 10 10 11 11 11 12 12 12 12 14 14 14 15 17 18 19 19 20 20 20 20 20 20 21 22 22 22 23 25 25 27 30 34 36 36 37 37 35 34 34 32 31 33 34 35 36 37 37 37 35 31 27 26 26 27 28 27 24 21 20 20
8 8 8 8 9 10 11 12 12 12 12 13 13 12 11 10 9 8 7 7 8 8 9 10 10 10 11 11 10 11 12 12 13 14 14 14 15 17 17 17 18 19 19 19 18 19 20 21 23 23 24 25 26 26 29 33 37 38 38 39 39 38 38 37 36 36 37 36 34 33 32 30 29 28 24 22 21 22 24 24 21 19 19 20 21
10 9 9 11 11 12 13 13 13 12 12 12 12 11 10 9 8 7 7 8 8 8 9 10 9 9 11 11 10 10 12 13 13 14 14 14 15 15 15 15 15 17 18 17 16 17 20 21 23 24 26 28 28 29 32 37 39 39 40 40 39 40 41 40 40 42 41 36 31 28 26 25 26 24 22 20 20 21 22 18 16 16 17 16 18
11 11 12 13 13 14 15 14 12 12 11 11 11 10 9 8 8 8 8 9 9 8 8 8 9 9 11 11 10 11 12 13 13 14 15 15 14 13 13 13 14 16 17 16 15 17 20 22 23 24 25 27 29 32 36 39 40 41 41 41 41 43 44 42 42 43 39 31 26 25 23 22 23 23 21 19 20 21 21 18 16 16 15 15 18
13 13 14 14 14 14 14 14 12 11 11 11 10 9 8 8 8 8 9 9 9 8 8 9 9 9 10 11 11 11 13 13 14 14 14 15 14 12 12 13 14 15 16 15 15 17 20 23 25 25 25 26 29 32 36 39 40 41 41 42 43 44 45 44 42 38 32 26 23 24 22 20 22 22 20 20 21 20 20 20 17 13 12 15 18
Wind_Direction
112 106 95 90 90 87 83 83 83 81 78 79 79 78 78 79 77 72 65 61 60 59 57 55 54 54 54 55 55 53 51 51 49 46 43 39 33 30 28 25 25 26 26 26 26 25 23 22 22 19 17 16 15 13 8 6 5 3 357 351 347 343 341 345 348 337 326 323 322 317 312 307 304 302 303 304 303 308 314 312 304 301 304 306 307
121 109 99 95 91 90 85 84 87 86 84 83 82 82 81 80 78 74 70 64 61 59 57 54 49 47 50 51 51 52 49 46 47 44 41 38 31 26 24 20 21 23 24 26 27 26 23 21 21 19 17 14 13 11 8 6 4 3 1 355 350 346 343 351 354 347 338 333 326 319 316 315 311 301 297 313 316 310 307 303 299 303 307 308 307
130 115 106 98 91 89 87 89 92 94 96 93 91 89 85 81 78 77 74 68 62 57 55 56 53 52 54 52 51 53 51 48 47 45 41 39 33 29 29 26 25 25 25 26 28 26 22 19 19 18 16 13 10 9 8 6 4 3 1 357 352 345 344 353 358 356 346 335 327 321 325 322 314 309 319 322 316 307 302 301 301 304 306 307 306
137 126 113 105 98 92 90 98 105 106 106 101 95 91 84 80 80 80 76 69 62 56 54 55 59 62 62 60 56 53 49 47 48 47 43 39 37 37 37 35 34 32 30 30 31 29 24 20 16 15 16 12 7 6 6 4 1 0 360 358 354 347 343 346 353 357 353 344 335 325 321 316 313 335 331 320 316 312 309 308 303 300 300 301 302
141 133 124 116 103 92 92 102 110 109 103 97 91 85 82 82 82 80 73 66 59 52 51 53 56 59 58 56 53 50 47 45 44 41 39 39 39 39 38 36 36 35 32 31 30 28 25 20 14 11 12 10 6 2 2 359 354 356 358 354 353 351 341 336 340 351 352 350 347 334 322 318 324 334 327 317 320 317 310 310 308 305 303 299 297
139 135 130 120 108 101 103 107 108 102 95 92 88 84 86 86 83 76 68 62 56 51 49 52 55 54 52 48 44 44 46 46 42 36 34 38 38 38 36 32 31 31 29 26 25 23 20 15 10 6 5 6 4 1 0 356 350 352 355 347 345 346 339 333 333 341 341 337 344 337 319 311 314 322 321 312 315 313 309 311 309 306 305 304 303
145 142 134 126 125 124 121 117 108 101 99 99 96 95 94 89 80 72 65 59 53 50 50 54 57 56 54 52 47 46 49 49 46 40 38 40 37 35 33 30 28 27 25 23 21 19 16 13 12 9 6 3 1 0 359 356 351 351 352 345 340 339 337 334 331 335 334 330 336 330 314 306 303 305 307 307 310 310 309 308 305 306 308 308 307
152 150 145 143 143 135 126 121 113 110 113 110 106 104 100 89 79 70 64 58 52 53 54 55 58 57 55 53 51 49 48 48 48 43 40 39 35 31 29 29 28 25 23 19 16 16 14 12 13 12 8 1 356 358 357 353 351 349 349 347 344 341 339 336 332 333 332 331 333 326 317 312 305 300 298 300 303 304 307 307 306 310 309 306 305
155 150 148 147 146 138 126 122 119 121 121 114 110 110 104 92 80 71 63 58 56 56 58 57 57 57 55 51 49 45 42 41 39 36 31 27 25 22 20 20 22 21 19 15 13 13 11 8 8 9 7 0 354 355 353 349 349 348 348 347 346 343 341 338 333 331 331 329 329 325 321 318 312 309 305 303 303 302 306 308 309 311 308 305 306
157 145 144 143 142 141 133 132 134 133 134 130 124 119 112 102 86 76 65 60 59 57 59 58 56 55 52 49 44 39 34 30 27 25 20 15 13 13 13 11 12 12 11 12 11 10 9 7 4 3 4 358 353 351 348 346 346 346 347 345 344 343 340 339 333 330 330 327 327 326 324 323 321 320 317 314 311 306 304 306 309 310 308 307 308
159 149 146 144 146 152 154 156 156 157 163 161 154 150 144 141 135 104 79 66 61 58 58 57 55 52 48 44 39 33 26 21 18 15 11 11 11 11 10 8 8 7 6 7 8 5 4 3 360 356 357 354 349 347 344 343 342 343 346 345 344 343 340 339 334 333 333 329 329 329 326 328 326 321 321 321 316 310 308 306 307 307 306 306 307
164 162 153 151 158 168 176 182 183 185 186 183 181 183 185 191 192 165 108 77 62 56 54 54 52 47 41 35 30 26 20 14 11 9 8 10 11 10 9 6 6 5 3 2 1 0 358 357 355 351 352 350 346 344 342 341 340 339 342 344 343 343 343 341 338 337 336 332 332 331 326 325 323 320 322 321 316 313 310 304 305 308 306 304 307
173 172 162 161 172 180 188 196 197 196 195 193 193 194 196 203 207 189 119 81 53 49 48 50 51 42 32 24 19 16 13 8 6 8 9 9 8 9 7 4 3 1 359 359 356 355 354 352 350 348 347 345 342 341 340 340 342 336 335 340 340 340 342 338 335 335 333 330 329 326 323 322 321 321 321 317 314 313 309 306 309 311 308 304 306
178 178 172 169 178 185 192 200 200 196 195 196 198 201 204 207 210 210 129 65 25 29 32 41 49 37 24 16 11 7 4 3 5 7 8 8 7 6 6 5 3 360 358 357 353 350 350 347 345 346 345 342 340 339 338 342 347 340 335 339 335 334 336 331 329 329 325 325 325 321 320 318 316 317 316 313 312 313 311 311 312 310 306 304 305
180 181 178 173 179 188 195 201 202 198 194 197 201 204 210 210 208 221 274 325 321 311 324 13 30 28 22 16 9 3 0 1 4 6 4 4 4 4 6 6 3 1 357 354 349 346 347 346 344 345 345 343 342 340 341 346 349 345 341 339 333 331 331 325 324 323 320 321 320 317 316 314 314 314 312 311 311 310 309 308 308 308 306 305 305
182 184 182 177 180 189 196 201 205 202 196 199 205 205 209 213 213 238 271 281 284 285 292 306 343 11 20 15 10 5 2 2 1 2 358 355 359 1 5 7 3 0 356 351 350 348 348 347 346 348 347 347 348 346 345 348 346 343 340 337 333 333 330 325 323 321 320 320 317 317 316 313 313 312 310 310 308 305 304 304 304 305 306 307 307
185 186 184 182 182 188 197 202 205 206 202 202 208 207 206 214 227 246 261 268 271 276 279 274 290 342 3 9 9 5 3 3 359 356 353 350 356 359 2 6 3 360 355 350 348 348 348 346 346 348 348 349 351 350 348 346 340 337 335 332 332 333 329 325 324 321 320 319 316 318 317 313 312 312 311 309 306 304 302 301 301 300 301 303 302
186 187 188 187 185 189 198 203 204 208 209 206 207 209 211 221 238 251 259 267 273 278 278 274 278 297 333 355 1 359 356 358 356 352 351 352 356 1 2 3 360 357 354 349 346 347 348 346 346 347 347 347 348 346 343 339 335 332 330 327 328 329 326 325 325 322 320 318 316 317 315 313 312 312 310 307 305 304 302 300 300 298 297 295 295
188 189 192 189 187 192 200 205 206 208 211 212 210 213 221 230 241 252 259 265 271 275 275 272 268 271 298 332 343 348 346 352 356 351 350 351 355 359 358 354 351 348 349 346 346 351 351 350 348 345 343 343 341 337 336 333 331 329 328 325 324 324 323 323 325 324 320 317 316 316 313 311 312 310 308 307 305 304 302 302 301 299 297 294 292
190 190 194 192 192 195 200 207 211 208 208 213 216 221 230 240 247 252 258 262 266 268 270 270 266 263 274 302 318 325 329 342 351 347 346 349 351 353 351 347 343 342 345 344 345 349 349 349 348 345 344 341 336 332 330 329 327 326 326 324 322 322 321 322 323 322 319 317 316 317 314 312 312 309 307 305 303 301 302 302 301 299 297 295 293
191 191 194 195 196 199 203 209 214 213 212 213 220 228 236 244 250 252 256 261 263 265 266 267 264 258 261 280 298 300 305 323 336 335 335 338 340 342 341 339 336 337 339 339 341 340 337 336 336 335 336 334 332 329 325 322 320 320 320 320 318 319 319 318 318 316 314 314 314 314 314 314 313 310 307 306 303 302 302 300 298 298 297 297 296
192 193 196 198 200 203 207 211 214 218 222 224 230 238 243 247 251 254 258 261 263 263 263 264 261 254 253 266 281 287 293 305 318 324 324 325 328 328 329 329 329 331 332 330 331 326 319 316 313 313 315 315 315 315 312 307 305 308 310 310 309 310 310 309 309 308 307 308 307 307 309 312 311 307 305 305 304 303 303 300 299 299 298 298 297
194 196 199 202 205 208 211 216 219 222 226 232 237 242 247 250 253 256 260 263 265 265 263 261 256 251 251 259 270 282 290 297 306 315 317 316 316 316 317 318 320 322 322 319 316 310 304 301 299 299 300 300 300 300 297 290 289 294 297 298 299 300 301 301 301 302 304 304 303 302 304 306 306 304 303 303 303 302 302 301 300 299 298 298 297
199 200 202 205 209 211 214 220 226 228 230 232 238 244 248 249 251 256 261 264 268 266 262 257 252 249 250 257 267 280 291 297 306 312 312 309 308 307 307 309 310 311 310 308 304 300 298 296 295 298 301 301 302 301 298 293 291 291 291 292 293 293 294 295 296 299 303 303 302 301 300 300 301 301 301 302 301 301 301 301 301 300 299 298 299
202 202 204 208 212 215 218 224 229 233 234 233 238 245 248 249 250 254 260 264 266 265 262 255 251 250 251 257 268 282 293 300 305 307 307 306 306 304 303 302 301 301 302 302 300 297 296 296 299 305 308 307 305 304 302 300 299 298 295 292 289 288 289 291 293 297 301 303 302 300 298 297 296 296 297 299 300 301 301 301 301 301 300 300 300
202 203 205 211 216 220 223 228 233 237 238 238 242 246 250 253 251 251 257 262 261 260 258 252 248 251 256 268 283 294 300 305 306 306 305 304 304 302 301 302 301 300 298 296 297 297 296 298 303 308 309 307 306 304 301 299 298 297 294 290 287 285 286 290 293 295 298 301 301 300 298 295 293 292 292 295 298 300 300 300 300 299 299 300 300
202 203 206 211 218 222 225 229 233 236 238 242 250 254 257 259 254 253 257 255 250 250 253 249 245 249 263 285 298 301 303 306 305 304 302 301 302 300 298 300 300 298 297 297 301 304 302 300 302 304 304 304 303 300 297 295 295 295 292 290 288 286 285 288 290 291 293 296 297 297 296 294 290 288 288 290 292 295 296 295 296 296 297 299 298
205 207 209 213 220 222 226 229 229 232 237 244 254 260 260 257 257 259 256 242 232 239 251 249 245 252 272 293 301 302 303 305 303 300 299 297 296 295 295 296 296 295 297 300 305 308 306 302 301 302 301 301 300 297 294 292 294 296 294 290 288 286 284 285 287 287 287 290 292 293 293 292 289 285 281 278 278 281 286 288 290 291 293 297 298
214 216 215 218 224 222 223 226 226 234 243 251 260 262 257 253 254 254 247 229 221 234 250 250 251 265 285 296 300 300 303 304 301 298 298 296 296 297 296 295 298 299 301 304 305 305 305 302 302 301 301 301 298 295 293 292 295 298 296 292 289 286 285 284 284 284 283 285 287 288 288 288 286 279 269 265 268 272 272 274 280 284 288 292 295
225 226 222 223 226 224 221 221 228 242 254 262 268 268 264 261 258 249 233 216 211 227 244 255 270 286 296 299 299 300 302 303 303 301 303 305 306 308 303 300 303 305 306 306 305 304 303 303 303 303 303 303 300 297 295 296 299 300 299 297 292 287 285 284 282 283 283 283 284 284 285 285 282 274 264 263 271 273 266 264 269 275 282 286 290
242 232 224 222 224 222 221 226 240 256 266 270 273 274 272 269 262 243 215 201 203 221 241 269 293 300 302 299 300 302 302 304 307 308 310 312 313 313 308 305 305 306 306 306 306 305 306 306 307 307 308 306 304 302 302 305 308 310 308 304 297 290 287 283 281 281 281 282 283 285 287 287 282 275 267 266 271 268 261 261 266 272 278 278 277
263 238 217 216 220 219 221 237 256 264 270 276 281 282 278 266 243 207 181 180 202 231 266 294 304 303 302 303 303 304 304 308 312 313 315 314 313 311 310 309 309 309 309 309 308 309 310 311 313 313 313 312 310 309 312 316 318 318 317 313 306 295 288 284 281 280 281 283 286 287 288 286 283 280 276 274 273 267 258 258 264 271 278 278 274
322 263 209 204 209 196 175 173 185 75 38 27 35 26 36 96 127 142 141 143 179 230 296 305 306 304 303 304 305 307 311 314 315 315 314 312 311 313 314 315 315 313 312 311 311 312 314 316 318 317 316 315 312 312 316 321 322 320 319 318 312 301 290 284 281 280 281 282 285 287 288 287 285 284 281 277 273 270 265 261 260 265 272 275 276
62 77 99 106 111 109 108 107 99 89 83 79 82 85 89 96 104 109 97 69 291 293 305 305 304 303 303 307 311 315 316 316 315 315 315 314 317 320 322 320 318 315 314 314 314 316 317 318 319 318 317 315 313 315 318 322 324 323 322 321 315 304 291 284 280 280 281 282 284 287 288 287 287 287 285 281 275 271 269 266 263 265 269 273 276
86 93 97 102 109 109 107 107 102 98 96 92 91 94 99 100 95 82 68 36 337 313 302 298 301 305 311 316 317 317 316 316 319 321 321 322 325 326 324 322 320 319 318 317 318 318 318 317 318 319 319 317 317 319 322 325 327 329 330 327 318 305 294 287 283 283 284 285 287 289 289 289 288 287 286 286 281 273 269 268 267 269 272 274 275
101 105 106 108 111 110 107 105 102 98 95 89 89 92 89 83 72 50 30 0 327 305 298 303 310 314 318 320 318 319 322 326 329 329 328 328 328 327 326 325 324 322 320 319 319 319 319 319 320 322 322 322 323 323 326 331 334 335 336 332 320 309 300 294 289 289 290 290 290 291 291 291 291 289 288 289 283 271 266 267 268 270 274 275 274
108 108 107 104 102 101 99 98 97 93 89 88 88 82 70 61 48 23 352 319 302 303 309 317 319 318 320 324 328 333 337 338 335 332 330 331 330 328 328 328 327 324 321 320 321 322 323 323 322 324 325 324 324 326 331 335 337 338 339 335 325 316 308 300 295 293 293 293 293 293 293 292 292 292 292 293 285 266 260 265 267 269 274 275 275
115 112 110 104 97 97 97 97 100 97 92 93 90 85 72 9 349 335 321 315 313 319 326 326 324 327 334 344 350 351 347 341 336 335 335 334 331 330 330 329 327 324 323 324 325 325 325 325 323 323 323 322 323 328 334 337 338 341 344 342 332 324 317 310 306 302 298 296 294 294 293 292 292 291 292 294 285 265 258 265 269 271 274 275 276
119 112 109 107 104 108 107 102 105 100 89 82 78 75 296 316 332 324 316 322 326 331 334 335 342 354 2 5 3 357 351 344 340 340 338 335 332 330 330 329 328 327 327 328 329 327 325 325 323 322 323 324 326 331 337 339 340 343 347 348 342 331 326 323 319 315 310 303 298 295 292 290 292 294 294 292 280 265 260 264 269 272 273 274 276
130 120 112 120 131 139 133 117 111 99 81 63 25 319 298 311 323 319 322 336 347 353 359 7 18 21 13 8 6 1 356 350 345 342 337 334 333 333 333 333 332 332 332 330 330 328 325 325 326 326 327 329 330 334 337 339 340 341 345 350 349 339 331 328 324 318 313 307 302 299 295 292 295 298 301 296 280 265 262 265 267 268 270 273 276
133 137 143 158 164 151 140 126 113 99 77 46 339 314 307 315 327 339 0 24 35 39 39 34 28 21 14 12 8 1 355 350 345 342 338 336 339 339 339 338 337 336 334 331 330 329 327 328 330 330 331 332 333 335 336 336 337 339 341 345 346 340 332 328 321 315 311 308 305 304 301 300 302 303 306 303 287 270 269 270 264 262 265 267 270
140 167 181 198 201 174 159 140 113 88 5 280 299 298 311 356 32 47 54 58 59 54 46 35 26 20 16 11 5 360 355 348 346 346 344 344 346 346 343 341 339 336 334 332 333 333 332 332 334 334 335 335 334 335 336 335 337 339 338 338 338 335 331 327 321 315 312 308 305 304 303 305 307 304 302 301 293 286 286 282 272 269 268 263 263
169 182 174 203 240 221 176 143 91 28 295 236 253 234 105 86 81 77 74 71 64 53 43 35 27 20 14 6 0 358 357 354 354 353 351 350 349 348 344 342 340 337 336 336 338 338 337 336 336 337 338 336 335 335 335 335 339 342 339 335 334 331 329 327 321 314 312 308 306 306 306 306 307 302 298 297 293 288 288 287 282 279 275 268 266
176 170 150 216 269 262 140 98 67 61 114 136 163 128 105 96 90 85 79 73 64 50 41 34 25 18 11 3 0 0 0 2 360 355 353 352 350 347 345 343 342 341 341 342 341 341 340 339 339 339 338 337 337 336 334 334 340 342 338 334 331 328 325 324 318 313 310 308 307 308 308 306 304 301 299 300 294 284 279 278 281 284 279 271 267
168 157 140 313 324 31 86 80 72 76 85 89 106 109 102 95 91 86 79 71 59 49 40 28 19 16 11 6 5 4 1 2 2 356 353 352 350 348 347 345 346 347 346 346 344 344 344 342 341 340 338 337 337 336 335 337 340 339 335 330 327 324 321 320 316 311 309 307 307 307 307 306 304 300 298 299 296 287 280 274 276 284 282 268 256
134 111 103 101 95 92 94 88 81 81 86 90 97 101 99 95 92 85 76 63 51 43 35 26 19 17 13 10 10 7 0 359 0 357 353 352 351 351 350 349 351 353 353 350 348 347 347 346 343 340 338 338 338 338 338 339 339 336 332 329 326 323 321 319 315 311 308 307 307 307 306 305 304 300 295 291 287 284 279 270 267 273 274 261 247
95 100 106 110 106 103 102 98 91 90 93 94 95 95 95 94 89 80 70 58 47 38 31 25 21 17 14 11 9 6 359 356 357 355 351 351 353 354 354 355 357 358 357 354 352 351 352 349 344 341 341 341 340 340 341 341 339 335 332 330 329 326 324 323 319 315 313 311 308 306 304 302 302 300 297 291 285 281 275 266 260 261 259 252 246
102 107 109 109 110 110 109 105 100 98 98 97 95 93 90 87 81 70 61 52 44 36 30 26 22 19 14 8 4 3 359 354 353 352 350 351 353 354 355 359 3 4 1 356 354 356 357 352 346 344 343 341 341 342 342 339 336 333 332 332 331 329 328 326 322 319 317 314 309 306 304 303 304 305 304 297 290 282 272 260 255 256 251 246 247
107 107 108 110 113 115 113 109 106 106 104 100 97 93 87 81 73 61 50 43 37 35 31 26 23 21 13 3 359 0 357 351 350 350 350 351 352 351 353 357 3 5 4 2 360 359 357 353 348 346 345 343 340 338 336 335 335 335 334 333 332 331 330 327 324 323 321 315 310 307 308 309 309 310 310 307 303 298 288 273 262 259 251 244 247
111 110 110 112 115 117 117 114 113 113 111 105 101 95 85 76 66 52 44 38 30 26 26 23 21 20 12 2 356 356 354 351 350 350 349 348 349 350 353 356 355 356 0 5 3 357 354 353 350 347 345 343 337 334 335 338 340 340 338 336 334 333 331 328 327 326 323 316 311 311 313 315 314 312 314 318 317 313 310 299 281 266 256 251 252
121 119 118 118 120 122 122 120 120 120 115 108 101 93 82 70 59 49 43 37 30 24 22 20 17 15 9 0 355 354 353 351 351 350 348 347 348 349 353 355 354 354 359 1 358 356 357 357 354 349 345 343 339 338 341 343 343 341 339 338 338 338 337 334 331 326 321 317 318 317 317 319 319 316 318 322 321 319 315 304 290 283 280 267 256